Weather History for Spirit of St Louis, MO

Change the Weather History Date:

Monday, January 7, 2013

  Actual Average Record
Temperature  
Mean Temperature 0 °C -  
Max Temperature 9 °C 3 °C - (-1)
Min Temperature -8 °C -6 °C - (-1)
Degree Days  
Heating Degree Days 32    
Moisture  
Dew Point -7 °C    
Average Humidity 62    
Maximum Humidity 85    
Minimum Humidity 37    
Precipitation  
Precipitation 0.00 mm - - ()
Sea Level Pressure  
Sea Level Pressure 1026 hPa    
Wind  
Wind Speed 3 km/h (South)    
Max Wind Speed 16 km/h    
Max Gust Speed -    
Visibility 16 kilometers    
Events      
Averages and records for this station are not official NWS values.
T = Trace of Precipitation, MM = Missing Value Source: NWS Daily Summary

Daily Weather History Graph

Daily Weather History Graph

Search for Another Location

Airport:

Trip Planner

Search our weather history database for the weather conditions in past years. The results will help you decide how hot, cold, wet, or windy it might be!

Date:

Astronomy

Jan. 07, 2013 Rise Set
Actual Time 7:20 AM CST 4:57 PM CST
Civil Twilight 6:51 AM CST 5:27 PM CST
Nautical Twilight 6:18 AM CST 6:00 PM CST
Astronomical Twilight 5:46 AM CST 6:32 PM CST
Moon 2:45 AM CST (1/7) 1:08 PM CST (1/7)
Length of Visible Light 10h 35m
Length of Day
9h 36m
Waning Crescent, 22% of the Moon is Illuminated
Jan 7
Waning Crescent
Jan 11
New
Jan 18
First Quarter
Jan 26
Full
Feb 3
Last Quarter

Hourly Weather History & Observations

Time (CST) Temp. Windchill Dew Point Humidity Pressure Visibility Wind Dir Wind Speed Gust Speed Precip Events Conditions
12:54 AM -6.7 °C - -8.9 °C 85% 1029.8 hPa 16.1 km Calm Calm - N/A   Clear
1:54 AM -7.2 °C - -9.4 °C 85% 1029.8 hPa 16.1 km Calm Calm - N/A   Clear
2:54 AM -7.2 °C - -9.4 °C 85% 1030.2 hPa 16.1 km Calm Calm - N/A   Clear
3:54 AM -8.3 °C - -10.6 °C 84% 1030.0 hPa 14.5 km Calm Calm - N/A   Clear
4:54 AM -7.8 °C - -10.0 °C 84% 1029.6 hPa 14.5 km Calm Calm - N/A   Clear
5:54 AM -7.8 °C - -10.0 °C 84% 1029.3 hPa 16.1 km Calm Calm - N/A   Clear
6:54 AM -8.3 °C -11.3 °C -10.6 °C 84% 1029.6 hPa 14.5 km SW 5.6 km/h / 1.5 m/s - N/A   Clear
7:54 AM -7.8 °C - -10.0 °C 84% 1030.0 hPa 16.1 km Calm Calm - N/A   Clear
8:54 AM -2.2 °C - -6.1 °C 75% 1029.7 hPa 16.1 km Calm Calm - N/A   Clear
9:54 AM 1.1 °C -3.3 °C -5.0 °C 64% 1029.3 hPa 16.1 km South 16.7 km/h / 4.6 m/s - N/A   Clear
10:54 AM 3.3 °C 1.3 °C -5.0 °C 55% 1029.0 hPa 16.1 km South 7.4 km/h / 2.1 m/s - N/A   Partly Cloudy
11:54 AM 5.0 °C 1.8 °C -5.0 °C 49% 1027.1 hPa 16.1 km South 14.8 km/h / 4.1 m/s - N/A   Partly Cloudy
12:54 PM 7.0 °C 4.3 °C -4.0 °C 46% 1024.3 hPa 16.1 km SSE 14.8 km/h / 4.1 m/s - N/A   Partly Cloudy
1:54 PM 8.3 °C - -4.4 °C 41% 1024.3 hPa 16.1 km SSE 13.0 km/h / 3.6 m/s - N/A   Clear
2:54 PM 8.9 °C - -5.0 °C 37% 1023.8 hPa 16.1 km SE 11.1 km/h / 3.1 m/s - N/A   Scattered Clouds
3:54 PM 7.8 °C 6.6 °C -5.6 °C 39% 1023.7 hPa 16.1 km SSE 7.4 km/h / 2.1 m/s - N/A   Scattered Clouds
4:54 PM 7.0 °C 5.7 °C -6.0 °C 39% 1021.9 hPa 16.1 km SE 7.4 km/h / 2.1 m/s - N/A   Scattered Clouds
5:54 PM 5.6 °C 4.6 °C -6.1 °C 43% 1023.2 hPa 16.1 km SE 5.6 km/h / 1.5 m/s - N/A   Scattered Clouds
6:54 PM 5.0 °C 2.5 °C -6.1 °C 45% 1022.8 hPa 16.1 km South 11.1 km/h / 3.1 m/s - N/A   Clear
7:54 PM 3.9 °C 1.1 °C -6.1 °C 49% 1022.4 hPa 16.1 km South 11.1 km/h / 3.1 m/s - N/A   Mostly Cloudy
8:54 PM 2.8 °C 0.7 °C -5.6 °C 54% 1022.4 hPa 16.1 km South 7.4 km/h / 2.1 m/s - N/A   Partly Cloudy
9:54 PM 1.7 °C - -5.6 °C 59% 1022.4 hPa 16.1 km Calm Calm - N/A   Partly Cloudy
10:54 PM 1.1 °C - -5.6 °C 61% 1021.9 hPa 16.1 km Calm Calm - N/A   Clear
11:54 PM 0.6 °C - -5.6 °C 64% 1021.7 hPa 16.1 km Calm Calm - N/A   Clear